Regional Weather Roundup
Issued by NWS

Home | Current Version | Previous Version | Text Only | Print | Product List | Glossary Off
Versions: 1 2 3 4 5 6 7 8 9 10 11 12 13 14 15 16 17 18 19 20 21 22 23 24 25 26 27 28 29 30 31 32 33 34 35 36 37 38 39 40 41 42 43 44 45 46 47 48 49 50

000
ASUS43 KLMK 310602
RWRKY
KENTUCKY REGIONAL WEATHER ROUNDUP
NATIONAL WEATHER SERVICE LOUISVILLE KY
100 AM EST SAT JAN 31 2015

NOTE "FAIR" INDICATES FEW OR NO CLOUDS BELOW 12,000 FEET
WITH NO SIGNIFICANT WEATHER AND/OR OBSTRUCTIONS TO VISIBILITY.

KYZ001>023-026-027-061>063-070>075-310700-
WESTERN AND SOUTH CENTRAL KENTUCKY

CITY           SKY/WX    TMP DP  RH WIND       PRES   REMARKS
PADUCAH        MOCLDY    27  22  81 CALM      30.42F
HENDERSON      PTCLDY    21  16  79 CALM      30.43F
OWENSBORO      PTCLDY    25  21  84 CALM      30.44F
HOPKINSVILLE   FAIR      28  21  73 E2        30.42F
BOWLING GREEN  CLEAR     25  18  74 CALM      30.44S
GLASGOW        NOT AVBL
$$

KYZ024-025-028>034-038-045-046-053-310700-
NORTH CENTRAL KENTUCKY

CITY           SKY/WX    TMP DP  RH WIND       PRES   REMARKS
LOUISVILLE/SDF CLEAR     27  16  63 SE5       30.44F WCI  22
LOUISVILLE/LOU CLEAR     26  16  65 CALM      30.44F
FORT KNOX      CLEAR     22  16  77 CALM      30.41F
$$

KYZ035>037-039>044-047>052-055>060-089>105-310700-
NORTHEAST KENTUCKY

CITY           SKY/WX    TMP DP  RH WIND       PRES   REMARKS
LEXINGTON      CLEAR     23  14  68 SE5       30.41F WCI  17
COVINGTON      CLEAR     22  14  71 CALM      30.41F
FRANKFORT      CLEAR     19  14  81 CALM      30.41F
$$

KYZ054-064>069-076>088-106>120-310700-
SOUTHEAST KENTUCKY

CITY           SKY/WX    TMP DP  RH WIND       PRES   REMARKS
JACKSON        CLEAR     23  11  60 CALM      30.39F
LONDON         CLEAR     23  15  71 CALM      30.41F
SOMERSET       NOT AVBL
MIDDLESBORO    NOT AVBL
MONTICELLO     CLEAR     17  14  88 CALM      30.45F
$$



USA.gov is the U.S. government's official web portal to all federal, state and local government web resources and services.